Regional Weather Roundup
Issued by NWS Upton, NY

Current Version | Previous Version | Text Only | Print | Product List | Glossary Off
Versions: 1 2 3 4 5 6 7 8 9 10 11 12 13 14 15 16 17 18 19 20 21 22 23 24 25 26 27 28 29
000 ASUS41 KOKX 270604 RWROKX REGIONAL WEATHER ROUNDUP NATIONAL WEATHER SERVICE NEW YORK NY 200 AM EDT SAT AUG 27 2016 NOTE: "FAIR" INDICATES FEW OR NO CLOUDS BELOW 12,000 FEET WITH NO SIGNIFICANT WEATHER AND/OR OBSTRUCTIONS TO VISIBILITY. NYZ071-072-176-178-NJZ106-104-270700- NEW YORK CITY METRO AREA CITY SKY/WX TMP DP RH WIND PRES REMARKS Central Park NOT AVBL LaGuardia APRT PTCLDY 80 64 58 N9 30.08S Kennedy INTL PTCLDY 79 63 57 N10 30.09S Newark/Liberty NOT AVBL Bronx Bot Gard N/A 75 63 64 NE1 30.10S Wall St Helipt CLEAR 81 66 61 CALM 30.09S Teterboro CLEAR 75 64 68 NW3 30.08S $$ NYZ177-179-078>081-270700- LONG ISLAND NEW YORK CITY SKY/WX TMP DP RH WIND PRES REMARKS Farmingdale CLEAR 76 59 55 N8 30.09R MacArthur/ISP CLEAR 73 64 73 N10 30.07S Shirley CLEAR 70 62 76 N6 30.08S Riverhead NOT AVBL Westhampton CLEAR 70 62 76 N9 30.09S Southampton N/A 75 68 78 N3 30.04R Bridgehampton N/A 72 64 78 N1 30.06S East Hampton FAIR 73 64 72 N6 30.07R Montauk N/A 73 67 81 N5 30.08R $$ NYZ052-065-067-270700- HUDSON VALLEY CITY SKY/WX TMP DP RH WIND PRES REMARKS White Plains FAIR 69 60 73 N7 30.11R Newburgh NOT AVBL Montgomery FAIR 65 63 93 CALM 30.12R Poughkeepsie FAIR 62 60 93 CALM 30.10S Albany FAIR 67 60 78 NW7 30.13R $$ NJZ001-105-106-008-010-013-015-019>022-104-270700- NEW JERSEY CITY SKY/WX TMP DP RH WIND PRES REMARKS Newark/Liberty NOT AVBL Teterboro CLEAR 75 64 68 NW3 30.08S Caldwell CLEAR 70 65 84 CALM 30.11R Morristown CLEAR 63 63 100 CALM 30.10S Somerville CLEAR 66 64 93 N5 30.09S Linden FAIR 77 62 59 CALM 30.11S Sussex FAIR 63 63 100 CALM 30.13S Abdover N/A 63 62 97 CALM 30.14S Trenton CLEAR 74 63 68 N5 30.09S Millville CLEAR 73 67 81 N3 30.09S Atlantic City CLEAR 71 65 81 N5 30.08F Wrightstown CLEAR 71 65 81 N5 30.07S Toms River CLEAR 69 64 84 N3 30.10R Belmar CLEAR 75 65 70 N7 30.10R $$ PAZ047>061-062-071-270700- EASTERN PENNSYLVANIA CITY SKY/WX TMP DP RH WIND PRES REMARKS Philadelphia CLEAR 78 66 66 NW5 30.10S Allentown CLEAR 69 62 78 CALM 30.12S Scranton FAIR 66 62 87 E3 30.17R $$ CTZ002-004>006-009-010-012-RIZ004-006-007-MAZ004-011-015-270700- SOUTHERN NEW ENGLAND IN CT CITY SKY/WX TMP DP RH WIND PRES REMARKS Bradley INTL FAIR 71 60 68 N8 30.09S Hartford FAIR 73 63 70 CALM 30.09R Danbury FAIR 62 60 93 CALM 30.13R Wtrbury/Oxford N/A 70 55 60 N10 30.14R Bridgeport FAIR 76 59 55 N10 30.08R Meriden FAIR 67 61 81 CALM 30.09S New Haven FAIR 73 60 63 N8 30.09R Chester FAIR 73 63 68 N9 30.10R Groton FAIR 75 64 68 N9 30.06R Wilimantic FAIR 68 67 96 CALM 30.10R IN RI CITY SKY/WX TMP DP RH WIND PRES REMARKS Providence FAIR 75 64 68 N7 30.08R Block Island FAIR 73 67 81 N9 30.06R Westerly FAIR 73 64 73 N6 30.07R IN MA CITY SKY/WX TMP DP RH WIND PRES REMARKS Boston FAIR 76 59 55 N7 30.07R Worcester FAIR 73 55 53 N10 30.13R Westfield FAIR 68 61 78 NE3 30.10R Provincetown FAIR 70 65 84 N6 30.06R Nantucket FOG 71 70 96 CALM 30.03S VSB 1/4 $$ ANZ330-335-338-340-345-350-353-355-270700- COASTAL MARINE OBSERVATIONS STATION/POSITION TIME SKY/WX TEMP WIND PRES VSBY WAVE AIR SEA DIR/SP/G HT/PER (UTC) (F) (DEG/KT/KT) (MB) (MI) (FT/S) NY HARB ENTRANCE 0450 78 75 350/ 8/ 10 1018.2 2/ 8 20S FIRE ISLAND 0450 76 74 350/ 6/ 8 1017.8 2/ 7 GREAT SOUTH BAY 0500 77 79 330/ 6/ 8 N/A 23 SSW MONTAUK P 0450 77 74 330/ 12/ 14 1017.6 2/ 6 15 E BARNEGAT LI 0500 76 N/A 3/ 5 HUDSON CANYON 0450 80 79 1017.1 3/ 6 KINGS POINT 0500 77 76 1018.6 EXECUTION ROCKS 0500 77 30/ 4/ 6 N/A CENTRAL LI SOUND 0500 77 76 350/ 14/ 16 N/A 1/ 3 EASTERN LI SOUND 0500 75 71 360/ 6/ 8 N/A ROBBINS REEF 0500 79 350/ 7/ 9 1018.1 $$ >>>>>>>>>>>>>>>>>>>>>>>>>>>> KEY <<<<<<<<<<<<<<<<<<<<<<<<<<< > < > SKY/WX - Sky Condition/Present Weather < > TMP - Temperature in Fahrenheit < > DP - Dew Point in Fahrenheit < > RH - Relative Humidity in Percent < > WIND - Direction (from) and Speed in MPH < > PRES - Mean Sea Level Pressure (inches of Hg) < > WCI - Wind Chill Index < > VSB - VISIBILITY IN MILES < > HX - HEAT INDEX < > TC - TEMPERATURE IN CELSIUS < > VRB - VARIABLE WIND DIRECTION < > < >>>>>>>>>>>>>>>>>>>>>>>>>>>> KEY <<<<<<<<<<<<<<<<<<<<<<<<<<<

USA.gov is the U.S. government's official web portal to all federal, state and local government web resources and services.